TJS-3

Last updated on Sun Jun 21 2026 00:03:07 GMT+0000 (Coordinated Universal Time)

1 43874U 18110A 26171.49122927 -.00000221 00000+0 00000+0 0 9994 2 43874 2.5544 80.4557 0002268 79.3783 73.9462 1.00270060 27457
UTC large
Height (km)
Speed (km/s)
/
Latitude / Longitude
Inclination (degrees)
Orbital Period (minutes)
Azimuth
Elevation
Range (km)
Doppler Factor

Next 0 passes for location: London (51.5072 / 0.1276)

No passes found over London.
TJS-3